DW9177 Weather Reports


Display with metric or nautical units.
time (UTC)temp
F
wind
direction
speed
MPH
gust
MPH
rain 1hr
in
rain 24hr
in
rain mn
in
humidity
%
barometer
mb
20260905193041 96 137 3.0 7.0 0.00 0.00 0.00 36 1008.3
20260905191535 95 148 2.0 6.0 0.00 0.00 0.00 37 1008.5
20260905190033 94 127 3.0 6.0 0.00 0.00 0.00 37 1008.7
20260905184537 94 136 4.0 7.0 0.00 0.00 0.00 38 1009.0
20260905183038 93 141 3.0 7.0 0.00 0.00 0.00 38 1009.2
20260905181535 93 136 2.0 7.0 0.00 0.00 0.00 39 1009.4
20260905180032 93 149 0.0 4.0 0.00 0.00 0.00 38 1009.6
20260905174526 92 132 2.0 6.0 0.00 0.00 0.00 39 1009.5
20260905173033 91 102 1.0 5.0 0.00 0.00 0.00 42 1009.7
20260905171520 90 138 1.0 5.0 0.00 0.00 0.00 44 1009.7
20260905170020 90 125 1.0 4.0 0.00 0.00 0.00 44 1009.9
20260905164521 89 98 0.0 3.0 0.00 0.00 0.00 45 1009.9
20260905163017 89 126 0.0 2.0 0.00 0.00 0.00 46 1009.9
20260905161514 89 113 0.0 3.0 0.00 0.00 0.00 47 1010.0
20260905160012 88 127 0.0 0.0 0.00 0.00 0.00 48 1010.0
20260905154510 88 114 0.0 0.0 0.00 0.00 0.00 50 1009.9
20260905153014 87 104 0.0 0.0 0.00 0.00 0.00 51 1010.0
20260905151507 85 105 0.0 0.0 0.00 0.00 0.00 54 1010.0
20260905150002 83 105 0.0 0.0 0.00 0.00 0.00 57 1010.0
20260905144601 82 104 0.0 0.0 0.00 0.00 0.00 59 1010.1
20260905144500 82 104 0.0 0.0 0.00 0.00 0.00 60 1010.1
20260905143057 79 104 0.0 2.0 0.00 0.00 0.00 65 1009.9
20260905141555 77 103 0.0 2.0 0.00 0.00 0.00 68 1009.8
20260905140054 77 101 1.0 4.0 0.00 0.00 0.00 68 1009.6
20260905134552 76 101 2.0 4.0 0.00 0.00 0.00 70 1009.5
20260905133049 74 103 0.0 0.0 0.00 0.00 0.00 74 1009.2
20260905131556 73 98 0.0 0.0 0.00 0.00 0.00 75 1008.9
20260905130046 73 104 0.0 0.0 0.00 0.00 0.00 75 1008.8
20260905124546 73 108 0.0 0.0 0.00 0.00 0.00 76 1008.8
20260905123104 73 98 0.0 0.0 0.00 0.00 0.00 75 1008.5
20260905121542 73 98 0.0 0.0 0.00 0.00 0.00 74 1008.5
20260905120042 73 98 0.0 0.0 0.00 0.00 0.00 74 1008.5
20260905114544 74 98 0.0 0.0 0.00 0.00 0.00 72 1008.4
20260905113039 74 98 0.0 0.0 0.00 0.00 0.00 72 1008.4
20260905111538 75 101 0.0 0.0 0.00 0.00 0.00 71 1008.5
20260905110036 75 103 0.0 0.0 0.00 0.00 0.00 71 1008.5
20260905104534 75 103 0.0 0.0 0.00 0.00 0.00 70 1008.4
20260905103042 76 103 0.0 0.0 0.00 0.00 0.00 69 1008.4
20260905101530 76 103 0.0 0.0 0.00 0.00 0.00 67 1008.4
20260905100039 77 105 0.0 2.0 0.00 0.00 0.00 66 1008.4
20260905094528 77 105 1.0 6.0 0.00 0.00 0.00 66 1008.5
20260905093027 76 105 0.0 3.0 0.00 0.00 0.00 67 1008.5
20260905091529 76 103 0.0 0.0 0.00 0.00 0.00 67 1008.5
20260905090024 77 101 0.0 1.0 0.00 0.00 0.00 66 1008.5
20260905084523 77 103 0.0 0.0 0.00 0.00 0.00 66 1008.5
20260905083021 77 101 0.0 0.0 0.00 0.00 0.00 66 1008.7
20260905081522 77 103 0.0 0.0 0.00 0.00 0.00 65 1008.7
20260905080027 77 103 2.0 4.0 0.00 0.00 0.00 65 1008.8
20260905074517 78 99 0.0 0.0 0.00 0.00 0.00 64 1008.8
20260905073022 78 99 0.0 0.0 0.00 0.00 0.00 63 1008.8
20260905071515 79 179 0.0 1.0 0.00 0.00 0.00 62 1008.7
20260905070009 79 103 0.0 7.0 0.00 0.00 0.00 61 1008.6
20260905064508 79 106 3.0 7.0 0.00 0.00 0.00 61 1008.6
20260905063007 80 117 1.0 8.0 0.00 0.00 0.00 60 1008.6
20260905061506 81 109 0.0 5.0 0.00 0.00 0.00 59 1008.5
20260905060021 81 100 1.0 5.0 0.00 0.00 0.00 59 1008.5
20260905054506 82 110 3.0 7.0 0.00 0.00 0.00 57 1008.6
20260905053006 82 107 1.0 5.0 0.00 0.00 0.00 57 1008.5
20260905051507 83 102 2.0 6.0 0.00 0.00 0.00 56 1008.3
20260905050005 83 119 0.0 4.0 0.00 0.00 0.00 55 1008.2
20260905044504 84 107 3.0 6.0 0.00 0.00 0.00 53 1008.1
20260905043003 84 106 2.0 5.0 0.00 0.00 0.00 53 1008.2
20260905041502 85 106 3.0 7.0 0.00 0.00 0.00 52 1008.2
20260905040003 85 106 1.0 5.0 0.00 0.00 0.00 50 1008.2
20260905034502 86 103 0.0 0.0 0.00 0.00 0.00 47 1008.1
20260905033100 87 121 0.0 5.0 0.00 0.00 0.00 45 1008.0
20260905031559 87 132 0.0 4.0 0.00 0.00 0.00 41 1007.7
20260905030101 88 129 0.0 0.0 0.00 0.00 0.00 38 1007.5
20260905024558 89 134 0.0 0.0 0.00 0.00 0.00 36 1007.3
20260905023058 89 135 0.0 2.0 0.00 0.00 0.00 35 1007.0
20260905021557 90 137 1.0 4.0 0.00 0.00 0.00 35 1006.8
20260905020056 90 155 0.0 4.0 0.00 0.00 0.00 34 1006.7
20260905014555 91 145 1.0 5.0 0.00 0.00 0.00 33 1006.6
20260905013055 91 148 1.0 5.0 0.00 0.00 0.00 33 1006.5
20260905011614 93 140 2.0 8.0 0.00 0.00 0.00 33 1006.4
20260905010053 94 145 2.0 8.0 0.00 0.00 0.00 33 1006.4
20260905004552 95 143 2.0 5.0 0.00 0.00 0.00 32 1006.3
20260905003056 95 137 2.0 7.0 0.00 0.00 0.00 34 1006.3
20260905001605 95 143 4.0 12.0 0.00 0.00 0.00 33 1006.0
20260905000051 95 141 4.0 10.0 0.00 0.00 0.00 33 1006.0
20260904234550 96 149 3.0 10.0 0.00 0.00 0.00 32 1006.0
20260904233102 95 134 3.0 8.0 0.00 0.00 0.00 32 1006.0
20260904231547 97 136 0.0 7.0 0.00 0.00 0.00 31 1006.1
20260904230047 96 155 2.0 10.0 0.00 0.00 0.00 33 1006.2
20260904224545 96 134 4.0 8.0 0.00 0.00 0.00 32 1006.2
20260904223045 96 134 1.0 8.0 0.00 0.00 0.00 35 1006.3
20260904221544 96 139 3.0 8.0 0.00 0.00 0.00 35 1006.4
20260904220052 95 140 1.0 9.0 0.00 0.00 0.00 36 1006.6
20260904214539 97 147 2.0 6.0 0.00 0.00 0.00 33 1006.7
20260904213038 96 140 2.0 8.0 0.00 0.00 0.00 35 1006.9
20260904211536 95 133 1.0 6.0 0.00 0.00 0.00 36 1007.1
20260904210032 96 139 1.0 6.0 0.00 0.00 0.00 33 1007.4
20260904204532 95 108 4.0 7.0 0.00 0.00 0.00 33 1007.5
20260904203030 95 108 1.0 8.0 0.00 0.00 0.00 35 1007.8
20260904201531 95 131 3.0 6.0 0.00 0.00 0.00 38 1008.1
20260904200029 96 104 2.0 8.0 0.00 0.00 0.00 35 1008.3
20260904194525 95 128 3.0 8.0 0.00 0.00 0.00 38 1008.4